| time (UTC) | temp C | wind direction | speed KPH | gust KPH | rain 1hr cm | rain 24hr cm | rain mn cm | humidity % | barometer mb |
| 20260902123043 | 8 | 331 | 0.0 | 0.0 | 0.00 | 0.00 | 0.00 | 85 | 1009.3 |
| 20260902121543 | 8 | 331 | 0.0 | 0.0 | 0.00 | 0.00 | 0.00 | 85 | 1009.4 |
| 20260902120041 | 8 | 331 | 0.0 | 0.0 | 0.00 | 0.00 | 0.00 | 84 | 1009.4 |
| 20260902114544 | 8 | 331 | 0.0 | 0.0 | 0.00 | 0.00 | 0.00 | 84 | 1009.4 |
| 20260902113052 | 8 | 331 | 0.0 | 0.0 | 0.00 | 0.00 | 0.00 | 83 | 1009.7 |
| 20260902111538 | 8 | 331 | 0.0 | 0.0 | 0.00 | 0.00 | 0.00 | 83 | 1009.7 |
| 20260902110036 | 8 | 331 | 0.0 | 0.0 | 0.00 | 0.00 | 0.00 | 83 | 1009.7 |
| 20260902104551 | 8 | 331 | 0.0 | 0.0 | 0.00 | 0.00 | 0.00 | 83 | 1009.8 |
| 20260902103033 | 8 | 331 | 0.0 | 0.0 | 0.00 | 0.00 | 0.00 | 82 | 1009.6 |
| 20260902101537 | 8 | 331 | 0.0 | 1.6 | 0.00 | 0.00 | 0.00 | 83 | 1009.5 |
| 20260902100029 | 9 | 331 | 0.0 | 0.0 | 0.00 | 0.00 | 0.00 | 82 | 1009.4 |
| 20260902094528 | 9 | 331 | 0.0 | 0.0 | 0.00 | 0.00 | 0.00 | 82 | 1009.4 |
| 20260902093027 | 9 | 331 | 0.0 | 0.0 | 0.00 | 0.00 | 0.00 | 81 | 1009.4 |
| 20260902091530 | 10 | 331 | 0.0 | 0.0 | 0.00 | 0.00 | 0.00 | 80 | 1009.4 |
| 20260902090021 | 10 | 331 | 0.0 | 1.6 | 0.00 | 0.00 | 0.00 | 80 | 1009.3 |
| 20260902084520 | 10 | 331 | 0.0 | 0.0 | 0.00 | 0.00 | 0.00 | 80 | 1009.5 |
| 20260902083017 | 10 | 331 | 0.0 | 0.0 | 0.00 | 0.00 | 0.00 | 79 | 1009.6 |
| 20260902081521 | 10 | 331 | 0.0 | 1.6 | 0.00 | 0.00 | 0.00 | 78 | 1009.7 |
| 20260902080014 | 11 | 331 | 1.6 | 3.2 | 0.00 | 0.00 | 0.00 | 78 | 1009.6 |
| 20260902074510 | 11 | 331 | 0.0 | 3.2 | 0.00 | 0.00 | 0.00 | 76 | 1009.5 |
| 20260902073007 | 11 | 331 | 0.0 | 0.0 | 0.00 | 0.00 | 0.00 | 75 | 1009.3 |
| 20260902071504 | 12 | 331 | 0.0 | 0.0 | 0.00 | 0.00 | 0.00 | 74 | 1009.4 |
| 20260902070100 | 12 | 331 | 0.0 | 0.0 | 0.00 | 0.00 | 0.00 | 73 | 1009.5 |
| 20260902064559 | 12 | 331 | 0.0 | 0.0 | 0.00 | 0.00 | 0.00 | 73 | 1009.6 |
| 20260902063059 | 13 | 331 | 0.0 | 1.6 | 0.00 | 0.00 | 0.00 | 72 | 1009.5 |
| 20260902061559 | 13 | 331 | 0.0 | 1.6 | 0.00 | 0.00 | 0.00 | 72 | 1009.8 |
| 20260902060105 | 13 | 331 | 0.0 | 6.4 | 0.00 | 0.00 | 0.00 | 71 | 1009.9 |
| 20260902054607 | 13 | 228 | 0.0 | 4.8 | 0.00 | 0.00 | 0.00 | 70 | 1010.0 |
| 20260902053111 | 14 | 228 | 0.0 | 3.2 | 0.00 | 0.00 | 0.00 | 70 | 1009.8 |
| 20260902051604 | 14 | 228 | 0.0 | 4.8 | 0.00 | 0.00 | 0.00 | 69 | 1009.9 |
| 20260902050059 | 14 | 207 | 1.6 | 12.9 | 0.00 | 0.00 | 0.00 | 68 | 1009.9 |
| 20260902044552 | 14 | 257 | 1.6 | 9.7 | 0.00 | 0.00 | 0.00 | 68 | 1009.7 |
| 20260902043058 | 13 | 227 | 0.0 | 3.2 | 0.00 | 0.00 | 0.00 | 67 | 1009.4 |
| 20260902041548 | 13 | 227 | 0.0 | 0.0 | 0.00 | 0.00 | 0.00 | 63 | 1009.1 |
| 20260902040046 | 14 | 227 | 0.0 | 0.0 | 0.00 | 0.00 | 0.00 | 61 | 1008.8 |
| 20260902034545 | 15 | 227 | 0.0 | 1.6 | 0.00 | 0.00 | 0.00 | 60 | 1008.6 |
| 20260902033046 | 15 | 227 | 0.0 | 1.6 | 0.00 | 0.00 | 0.00 | 58 | 1008.4 |
| 20260902031544 | 16 | 227 | 0.0 | 3.2 | 0.00 | 0.00 | 0.00 | 56 | 1008.2 |
| 20260902030043 | 16 | 227 | 0.0 | 3.2 | 0.00 | 0.00 | 0.00 | 54 | 1008.0 |
| 20260902024542 | 17 | 227 | 0.0 | 1.6 | 0.00 | 0.00 | 0.00 | 52 | 1007.8 |
| 20260902023048 | 18 | 227 | 0.0 | 3.2 | 0.00 | 0.00 | 0.00 | 49 | 1007.6 |
| 20260902021542 | 19 | 227 | 1.6 | 4.8 | 0.00 | 0.00 | 0.00 | 48 | 1007.5 |
| 20260902020041 | 20 | 227 | 0.0 | 4.8 | 0.00 | 0.00 | 0.00 | 46 | 1007.3 |
| 20260902014544 | 21 | 227 | 0.0 | 3.2 | 0.00 | 0.00 | 0.00 | 42 | 1007.1 |
| 20260902013039 | 21 | 227 | 0.0 | 3.2 | 0.00 | 0.00 | 0.00 | 43 | 1007.1 |
| 20260902011550 | 21 | 227 | 0.0 | 3.2 | 0.00 | 0.00 | 0.00 | 43 | 1007.0 |
| 20260902010038 | 21 | 205 | 1.6 | 6.4 | 0.00 | 0.00 | 0.00 | 41 | 1007.1 |
| 20260902004537 | 22 | 161 | 0.0 | 6.4 | 0.00 | 0.00 | 0.00 | 40 | 1007.2 |
| 20260902003037 | 22 | 229 | 1.6 | 6.4 | 0.00 | 0.00 | 0.00 | 40 | 1007.1 |
| 20260902001535 | 23 | 302 | 1.6 | 11.3 | 0.00 | 0.00 | 0.00 | 39 | 1007.1 |
| 20260902000040 | 22 | 229 | 0.0 | 11.3 | 0.00 | 0.00 | 0.00 | 41 | 1007.2 |
| 20260901234533 | 22 | 217 | 0.0 | 9.7 | 0.00 | 0.00 | 0.00 | 41 | 1007.2 |
| 20260901233033 | 22 | 225 | 1.6 | 8.0 | 0.00 | 0.00 | 0.00 | 39 | 1007.3 |
| 20260901231540 | 23 | 262 | 1.6 | 6.4 | 0.00 | 0.00 | 0.00 | 39 | 1007.3 |
| 20260901230032 | 23 | 229 | 1.6 | 8.0 | 0.00 | 0.00 | 0.00 | 38 | 1007.5 |
| 20260901224531 | 23 | 102 | 1.6 | 6.4 | 0.00 | 0.00 | 0.00 | 38 | 1007.4 |
| 20260901223030 | 23 | 227 | 3.2 | 17.7 | 0.00 | 0.00 | 0.00 | 37 | 1007.3 |
| 20260901221600 | 23 | 199 | 1.6 | 6.4 | 0.00 | 0.00 | 0.00 | 37 | 1007.5 |
| 20260901220041 | 23 | 194 | 3.2 | 16.1 | 0.00 | 0.00 | 0.00 | 37 | 1007.6 |
| 20260901214528 | 23 | 14 | 0.0 | 6.4 | 0.00 | 0.00 | 0.00 | 39 | 1007.7 |
| 20260901213025 | 23 | 93 | 3.2 | 14.5 | 0.00 | 0.00 | 0.00 | 40 | 1007.8 |
| 20260901211526 | 23 | 284 | 1.6 | 8.0 | 0.00 | 0.00 | 0.00 | 40 | 1007.7 |
| 20260901210030 | 23 | 95 | 1.6 | 11.3 | 0.00 | 0.00 | 0.00 | 40 | 1007.7 |
| 20260901204522 | 23 | 228 | 1.6 | 6.4 | 0.00 | 0.00 | 0.00 | 40 | 1007.7 |
| 20260901203026 | 23 | 98 | 0.0 | 12.9 | 0.00 | 0.00 | 0.00 | 41 | 1007.7 |
| 20260901201516 | 22 | 221 | 4.8 | 19.3 | 0.00 | 0.00 | 0.00 | 40 | 1007.8 |
| 20260901200027 | 22 | 232 | 3.2 | 9.7 | 0.00 | 0.00 | 0.00 | 42 | 1007.9 |
| 20260901194510 | 22 | 149 | 0.0 | 9.7 | 0.00 | 0.00 | 0.00 | 45 | 1008.0 |
| 20260901193010 | 21 | 218 | 1.6 | 8.0 | 0.00 | 0.00 | 0.00 | 47 | 1008.2 |
| 20260901191518 | 21 | 217 | 0.0 | 8.0 | 0.00 | 0.00 | 0.00 | 51 | 1008.2 |
| 20260901190003 | 20 | 275 | 1.6 | 11.3 | 0.00 | 0.00 | 0.00 | 53 | 1008.3 |
| 20260901184502 | 20 | 338 | 0.0 | 8.0 | 0.00 | 0.00 | 0.00 | 56 | 1008.4 |
| 20260901183059 | 20 | 150 | 0.0 | 9.7 | 0.00 | 0.00 | 0.00 | 58 | 1008.5 |
| 20260901181614 | 18 | 46 | 1.6 | 6.4 | 0.00 | 0.00 | 0.00 | 59 | 1008.7 |
| 20260901180051 | 18 | 276 | 1.6 | 9.7 | 0.00 | 0.00 | 0.00 | 62 | 1008.7 |
| 20260901174547 | 17 | 9 | 1.6 | 8.0 | 0.00 | 0.00 | 0.00 | 65 | 1008.6 |
| 20260901173043 | 16 | 270 | 1.6 | 11.3 | 0.00 | 0.00 | 0.00 | 66 | 1008.5 |
| 20260901171541 | 16 | 236 | 1.6 | 6.4 | 0.00 | 0.00 | 0.00 | 70 | 1008.4 |
| 20260901170046 | 15 | 242 | 0.0 | 6.4 | 0.00 | 0.00 | 0.00 | 72 | 1008.3 |
| 20260901164533 | 15 | 246 | 0.0 | 8.0 | 0.00 | 0.00 | 0.00 | 75 | 1008.4 |
| 20260901163038 | 14 | 240 | 0.0 | 8.0 | 0.00 | 0.00 | 0.00 | 78 | 1008.3 |
| 20260901161529 | 13 | 238 | 0.0 | 4.8 | 0.00 | 0.00 | 0.00 | 81 | 1008.0 |
| 20260901160022 | 12 | 323 | 0.0 | 6.4 | 0.00 | 0.00 | 0.00 | 84 | 1007.8 |
| 20260901154520 | 12 | 333 | 0.0 | 8.0 | 0.00 | 0.00 | 0.00 | 85 | 1007.6 |
| 20260901153024 | 11 | 320 | 1.6 | 8.0 | 0.00 | 0.00 | 0.00 | 87 | 1007.6 |
| 20260901151533 | 11 | 221 | 0.0 | 4.8 | 0.00 | 0.00 | 0.00 | 87 | 1007.5 |
| 20260901150031 | 10 | 221 | 0.0 | 1.6 | 0.00 | 0.00 | 0.00 | 86 | 1007.3 |
| 20260901144517 | 10 | 221 | 0.0 | 0.0 | 0.00 | 0.00 | 0.00 | 85 | 1007.1 |
| 20260901143016 | 10 | 221 | 0.0 | 0.0 | 0.00 | 0.00 | 0.00 | 85 | 1007.0 |
| 20260901141512 | 10 | 221 | 0.0 | 3.2 | 0.00 | 0.00 | 0.00 | 85 | 1007.0 |
| 20260901140009 | 10 | 221 | 0.0 | 0.0 | 0.00 | 0.00 | 0.00 | 84 | 1006.8 |
| 20260901134508 | 11 | 221 | 0.0 | 3.2 | 0.00 | 0.00 | 0.00 | 85 | 1006.6 |
| 20260901133008 | 11 | 221 | 0.0 | 6.4 | 0.00 | 0.00 | 0.00 | 84 | 1006.5 |
| 20260901131510 | 11 | 242 | 0.0 | 6.4 | 0.00 | 0.00 | 0.00 | 85 | 1006.4 |
| 20260901130006 | 11 | 155 | 0.0 | 4.8 | 0.00 | 0.00 | 0.00 | 85 | 1006.6 |
| 20260901124505 | 10 | 219 | 0.0 | 4.8 | 0.00 | 0.00 | 0.00 | 85 | 1006.6 |